#timestamp,LO_Frequency,Hit,StdDev 
1502866815.4,286046998.6,P,0.3
1502866835.2,286047000.8,N,0.9
1502866855.1,286046998.5,N,0.8
1502866856.0,286046998.5,N,0.8
1502866875.8,286046998.1,N,0.8
1502866895.6,286046999.8,N,0.8
1502866915.5,286047000.3,N,0.9
1502866935.3,286046998.5,N,0.8
1502866955.2,286046998.8,N,0.8
1502866975.0,286046998.9,N,0.8
1502866975.9,286046998.9,N,0.8
1502866995.7,286046998.7,N,0.7
1502867015.6,286046998.6,N,0.7
1502867035.4,286046998.6,N,0.7
1502867055.3,286046998.6,N,0.7
1502867075.1,286046999.2,N,0.7
1502867095.8,286046999.1,N,0.7
1502867115.7,286046999.5,N,0.6
1502867135.5,286046999.5,N,0.6
1502867155.4,286046998.8,N,0.6
1502867175.2,286046999.1,N,0.6
1502867195.0,286046996.5,Y,0.0
1502867195.9,286046996.5,P,1.2
1502867215.8,286046998.5,N,1.1
1502867235.6,286046998.5,N,1.0
1502867255.5,286046998.7,N,0.9
1502867275.3,286046999.9,N,1.0
1502867295.1,286047000.5,N,1.2
1502867315.9,286047000.7,N,1.3
1502867335.7,286046998.1,N,1.2
1502867355.5,286047000.6,N,1.3
1502867375.4,286047000.8,N,1.3
1502867395.2,286047000.7,N,1.3
1502867415.1,286047000.8,N,1.3
1502867416.0,286047000.8,N,1.3
1502867435.8,286047000.5,N,1.3
1502867455.7,286046999.9,N,1.2
1502867475.5,286047000.2,N,1.2
1502867495.3,286047000.1,N,1.2
1502867515.2,286047002.8,N,1.3
1502867535.0,286047002.4,N,1.4
1502867535.9,286047002.4,N,1.5
1502867555.7,286047002.6,N,1.5
1502867575.6,286047002.7,N,1.6
1502867595.4,286047002.1,N,1.6
1502867615.3,286047002.2,N,1.6
1502867635.1,286047001.9,N,1.6
1502867655.9,286047001.7,N,1.6
1502867675.7,286047001.8,N,1.6
1502867695.5,286047001.4,N,1.5
1502867715.4,286047001.3,N,1.5
1502867735.2,286047003.9,N,1.6
1502867755.1,286047001.3,N,1.4
1502867756.0,286047001.3,N,1.3
1502867775.8,286043676.1,Y,0.0
1502867795.6,286047001.3,P,0.1
1502867815.5,286047004.0,P,1.3
1502867835.3,286047004.4,P,1.5
1502867855.2,286047004.4,N,1.5
1502867875.9,286047001.3,N,1.5
1502867895.7,286047004.2,N,1.5
1502867915.6,286047003.8,N,1.4
1502867935.4,286047003.8,N,1.4
1502867955.2,286047004.0,N,1.3
1502867975.1,286047003.6,N,1.3
1502867976.0,286047003.6,N,1.2
1502867995.8,286047003.6,N,1.2
1502868015.7,286047003.4,N,1.1
1502868035.5,286047003.0,N,1.1
1502868055.3,286047006.0,Y,0.0
1502868075.2,286047000.1,P,1.6
1502868095.0,286047002.3,N,1.3
1502868095.9,286047002.3,N,1.2
1502868115.8,286047002.3,N,1.1
1502868135.6,286047000.1,N,1.2
1502868155.4,286047002.8,N,1.2
1502868175.3,286047002.2,N,1.1
1502868195.1,286047002.1,N,1.0
1502868215.9,286047002.6,N,1.0
1502868235.7,286047002.6,N,1.0
1502868255.5,286047001.9,N,0.9
1502868275.4,286047001.5,N,0.9
1502868295.2,286047001.5,N,0.9
1502868315.0,286047001.8,N,0.9
1502868315.9,286047001.8,N,0.8
1502868335.8,286047003.8,Y,0.0
1502868355.6,286047000.0,P,1.0
1502868375.5,286047002.4,N,1.0
1502868395.3,286047002.4,N,1.0
1502868415.1,286047002.1,N,0.9
1502868435.9,286047002.1,N,0.8
1502868455.7,286047002.2,N,0.8
1502868475.6,286047001.5,N,0.7
1502868495.4,286047002.5,Y,0.0
1502868515.2,286047000.6,P,0.6
1502868535.1,286047001.1,N,0.5
1502868536.0,286047001.1,N,0.4
1502868555.8,286047000.3,N,0.5
1502868575.7,286047000.8,N,0.5
1502868595.5,286047000.4,N,0.5
1502868615.3,286047000.9,N,0.5
1502868635.2,286047000.0,N,0.5
1502868655.0,286047000.1,N,0.5
1502868655.9,286047000.1,N,0.5
1502868675.7,286046999.7,N,0.6
1502868695.6,286047000.9,N,0.6
1502868715.4,286047000.5,N,0.5
1502868735.3,286047002.8,Y,0.0
1502868755.1,286047000.5,P,0.0
1502868775.8,286047000.5,P,0.0
1502868795.7,286047001.2,P,0.3
1502868815.5,286047001.2,Y,0.0
1502868835.4,286046998.5,P,1.1
1502868855.2,286047001.2,N,1.2
1502868875.0,286047000.8,N,1.1
1502868875.9,286047000.8,N,1.0
1502868895.8,286047000.7,N,0.9
1502868915.6,286047000.7,N,0.8
1502868935.5,286047000.3,N,0.8
1502868955.3,286046999.9,N,0.8
1502868975.1,286047000.5,N,0.7
1502868995.9,286047000.4,N,0.7
1502869015.7,286047000.0,N,0.7
1502869035.5,286047000.4,N,0.6
1502869055.4,286047000.7,N,0.6
1502869075.2,286047001.0,N,0.6
1502869095.1,286047001.2,N,0.6
1502869096.0,286047001.2,N,0.6
1502869115.8,286047000.7,N,0.6
1502869135.6,286047000.8,N,0.6
1502869155.5,286047000.8,N,0.6
1502869175.3,286047000.4,N,0.6
1502869195.1,286047000.5,N,0.6
1502869215.9,286046999.7,N,0.6
1502869235.7,286047002.7,Y,0.0
1502869255.6,286047001.2,P,0.3
1502869275.4,286046998.1,P,1.3
1502869295.2,286047000.3,N,1.2
1502869315.1,286047000.9,N,1.1
1502869316.0,286047000.9,N,1.0
1502869335.8,286046999.8,N,1.0
1502869355.7,286046999.8,N,0.9
1502869375.5,286046998.6,N,1.0
1502869395.3,286047000.4,N,1.0
1502869415.2,286047000.3,N,0.9
1502869435.0,286047000.7,N,0.9
1502869435.9,286047000.7,N,0.9
1502869455.8,286047000.9,N,0.9
1502869475.6,286047000.9,N,0.9
1502869495.4,286046999.7,N,0.8
1502869515.3,286047002.8,Y,0.0
1502869535.1,286047000.3,P,0.0
1502869555.8,286047000.4,P,0.1
1502869575.7,286047000.1,N,0.1
1502869595.5,286047002.6,Y,0.0
1502869615.4,286047000.1,P,0.1
1502869635.2,286047002.1,P,0.9
1502869655.0,286046999.8,N,0.9
1502869655.9,286046999.8,N,0.9
1502869675.8,286047002.3,N,1.1
1502869695.6,286047002.8,N,1.2
1502869715.5,286047002.1,N,1.2
1502869735.3,286047000.2,N,1.2
1502869755.1,286047002.2,N,1.2
1502869775.9,286047002.3,N,1.2
1502869795.7,286047002.8,N,1.2
1502869815.6,286047000.6,N,1.2
1502869835.4,286047000.3,N,1.1
1502869855.2,286047002.7,N,1.2
1502869875.1,286047000.9,N,1.1
1502869876.0,286047000.9,N,1.1
1502869895.8,286046999.9,N,1.1
1502869915.7,286046999.8,N,1.1
1502869935.5,286047000.1,N,1.1
1502869955.3,286046999.7,N,1.1
1502869975.2,286047002.8,N,1.2
1502869995.0,286047000.5,N,1.2
1502869995.9,286047000.5,N,1.1
1502870015.7,286047000.1,N,1.1
1502870035.6,286046999.8,N,1.1
1502870055.4,286047002.8,N,1.2
1502870075.3,286047000.2,N,1.2
1502870095.1,286047002.4,N,1.2
1502870096.0,286047002.4,N,1.2
1502870115.8,286047000.2,N,1.2
1502870135.7,286047002.4,N,1.2
1502870155.5,286047002.4,N,1.2
1502870175.4,286046999.7,N,1.2
1502870195.2,286047002.5,N,1.2
1502870215.0,286046999.8,N,1.2
1502870215.9,286046999.8,N,1.2
1502870235.8,286047001.6,N,1.2
1502870255.6,286047002.5,N,1.2
1502870275.5,286047002.2,N,1.2
1502870295.3,286047000.3,N,1.2
1502870315.1,286047000.0,N,1.1
1502870335.9,286046999.9,N,1.2
1502870355.7,286047002.5,N,1.2
1502870375.6,286046999.7,N,1.2
1502870395.4,286047002.4,N,1.2
